Location: Jackson
(35.6140°N, 88.8140°W)
Time: 01:51:25
(UTC-05:00)

OTV 5 (USA 277) - Visible Passes

Search period start: 23 March 2019 00:00
Search period end: 02 April 2019 00:00
Orbit: 315 x 320 km, 54.5° (Epoch: 14 March)

Date Brightness Start Highest point End Pass type
(mag) Time Alt. Az. Time Alt. Az. Time Alt. Az.
29 Mar ? 05:43:18 10° SSE 05:44:46 14° SE 05:46:15 10° E visible
30 Mar ? 05:56:41 10° SSW 05:59:17 45° SE 06:01:54 10° NE visible
31 Mar ? 06:11:21 10° WSW 06:13:57 44° NW 06:16:34 10° NNE visible
01 Apr ? 04:54:56 23° ESE 04:54:56 23° ESE 04:56:44 10° ENE visible
